IRIDIUM 33 DEB

Satellite information

Favourite Embed

Satellite Type and Status

DEBRISIN ORBIT

Key statistics

Satellite IRIDIUM 33 DEB at a glance.

Uptime

10261

Days in orbit

Revolutions

≈ 14.5

Per day

Orbit

LEO

Low Earth Orbit

Inclination

86.4

Latest

Satellite identification and parameters

Extended collection of information and parameters for IRIDIUM 33 DEB.

Object identification

Identified? True

Debris? True

Object name: IRIDIUM 33 DEB

International designator: 1997-051VZ

Object number (NORAD): 36483

Object ID (CCSDS): 36483

Country: UNITED STATES OF AMERICA (US)

Current information (Y/N): Y

RCS size: SMALL

Orbital parameters

Period: 99.622 minutes

Inclination: 86.3759 deg

SMA: 7118.653 km

Apoapsis: 746.123 km

Periapsis: 734.914 km

RAAN: 76.7091 deg

Eccentricy: 0.00078733

Argument of periapsis: 327.8012 deg

Mean anomaly: 32.2708 deg

Mean motion: 14.45459698 rev/day

Mean motion (dot): 0.00003021 rev/day2

B* drag term: 0.00085245871 1/REarth

Two-line elements (TLE)

Creation date: Oct. 17, 2025, 5:48 p.m.

Reference frame: TEME

Reference center: EARTH

Epoch: Oct. 17, 2025, 3:20 a.m. UTC

TLE line 0: 0 IRIDIUM 33 DEB

TLE line 1: 1 36483U 97051VZ 25290.13949807 .00003021 00000-0 85246-3 0 9999

TLE line 2: 2 36483 86.3759 76.7091 0007873 327.8012 32.2708 14.45459698643282

Live tracking on map

Real-time ground track for satellite IRIDIUM 33 DEB.

In-orbit conjunctions

A list of the most updated potential collisions computed for object IRIDIUM 33 DEB.

Target Orbit TCA Probability of collision Miss distance Type
CZ-6A DEB LEO 2025-05-04 07:00:03 0.0002662322 65.0 (m) DEBRIS

Associated space launch

Iridium provides global mobile telecommunications services using a constellation of 66 low earth orbit satellites in a 86.4° inclined orbit. Although 77 satellites were originally envisioned for the system and spawned the name based on the 77th element in the periodic table, the system has been scaled back. Motorola's Satellite Communications Group designed and manufactured the Iridium satellites with Lockheed Martin providing the LM-700A spacecraft buses.

IRIDIUM 33 DEB was lifted into orbit during the mission ‘Proton-K/17S40 | Iridium 27 to 33’, on board a Proton-K/17S40 space rocket.

The launch took place on Sept. 14, 1997, 1:36 a.m. from 81/23 (81L).

For more information about the launch, click the button.

Launch to space Proton-K/17S40 | Iridium 27 to 33
Proton-K/17S40 | Iridium 27 to 33

Agency: N/A

Status: Launch Successful

Launch date: Sept. 14, 1997, 1:36 a.m. UTC

Rocket: Proton-K/17S40

Launch pad: 81/23 (81L)

Location: Baikonur Cosmodrome, Republic of Kazakhstan

...

Latest news about this satellite

There are no fresh news available about this satellite. Check back as we update our databases every day.


Newsletter sign-up

Weekly statistics, charts and insights to help you stay on top of the space industry.